Tracking 19575 objects as of 18-Feb-2019
HD Live streaming from Space Station
objects crossing your sky now

COSMOS 1761

Track COSMOS 1761 now!
COSMOS 1761 is classified as:


NORAD ID: 16849
Int'l Code: 1986-050A
Perigee: 6,763.6 km
Apogee: 33,629.0 km
Inclination: 69.7 °
Period: 718.3 minutes
Semi major axis: 26567 km
RCS: 12.1379 m2 (large)
Launch date: July 5, 1986
Source: Commonwealth of Independent States (former USSR) (CIS)
Launch site: PLESETSK MISSILE AND SPACE COMPLEX (PKMTR)
aabbcc
Your satellite tracking list
Your tracking list is empty




NASA's NSSDC Master Catalog

Two Line Element Set (TLE):
1 16849U 86050A   19048.85437014 +.00000750 +00000-0 +00000-0 0  9993
2 16849 069.6873 178.5688 5056097 076.6918 233.4017 02.00484518238961
Source of the keplerian elements: AFSPC